QPF
0.00 0.00 0.00 0.00 0.00 0.00 0.00 0.00 0.00 0.00 0.00 0.00 0.00 0.00 0.00 0.00 0.00 0.00 0.00 0.00 0.00 0.00 0.00 0.00 0.00 0.00 0.00 0.00 0.00 0.00 0.00 0.00 0.00 0.00 0.00 0.00 0.00 0.00 0.00 0.00 0.00 0.00 0.00 0.00 0.00 0.00 0.00 0.00 0.00
0.00 0.00 0.00 0.00 0.00 0.00 0.00 0.00 0.00 0.00 0.00 0.00 0.00 0.00 0.00 0.00 0.00 0.00 0.00 0.00 0.00 0.00 0.00 0.00 0.00 0.00 0.00 0.00 0.00 0.00 0.00 0.00 0.00 0.00 0.00 0.00 0.00 0.00 0.00 0.00 0.00 0.00 0.00 0.00 0.00 0.00 0.00 0.00 0.00
0.00 0.00 0.00 0.00 0.00 0.00 0.00 0.00 0.00 0.00 0.00 0.00 0.00 0.00 0.00 0.00 0.00 0.00 0.00 0.00 0.00 0.00 0.00 0.00 0.00 0.00 0.00 0.00 0.00 0.00 0.00 0.00 0.00 0.00 0.00 0.00 0.00 0.00 0.00 0.00 0.00 0.00 0.00 0.00 0.00 0.00 0.00 0.00 0.00
0.00 0.00 0.00 0.00 0.00 0.00 0.00 0.00 0.00 0.00 0.00 0.00 0.00 0.00 0.00 0.00 0.00 0.00 0.00 0.00 0.00 0.00 0.00 0.00 0.00 0.00 0.00 0.00 0.00 0.00 0.00 0.00 0.00 0.00 0.00 0.00 0.00 0.00 0.00 0.00 0.00 0.00 0.00 0.00 0.00 0.00 0.00 0.00 0.00
0.00 0.00 0.00 0.00 0.00 0.00 0.00 0.00 0.00 0.00 0.00 0.00 0.00 0.00 0.00 0.00 0.00 0.00 0.00 0.00 0.00 0.00 0.00 0.00 0.00 0.00 0.00 0.00 0.00 0.00 0.00 0.00 0.00 0.00 0.00 0.00 0.00 0.00 0.00 0.00 0.00 0.00 0.00 0.00 0.00 0.00 0.00 0.00 0.00
0.00 0.00 0.00 0.00 0.00 0.00 0.00 0.00 0.00 0.00 0.00 0.00 0.00 0.00 0.00 0.00 0.00 0.00 0.00 0.00 0.00 0.00 0.00 0.00 0.00 0.00 0.00 0.00 0.00 0.00 0.00 0.00 0.00 0.00 0.00 0.00 0.00 0.00 0.00 0.00 0.00 0.00 0.00 0.00 0.00 0.00 0.00 0.00 0.00
0.00 0.00 0.00 0.00 0.00 0.00 0.00 0.00 0.00 0.00 0.00 0.00 0.00 0.00 0.00 0.00 0.00 0.00 0.00 0.00 0.00 0.00 0.00 0.00 0.00 0.00 0.00 0.00 0.00 0.00 0.00 0.00 0.00 0.00 0.00 0.00 0.00 0.00 0.00 0.00 0.00 0.00 0.00 0.00 0.00 0.00 0.00 0.00 0.00
0.00 0.00 0.00 0.00 0.00 0.00 0.00 0.00 0.00 0.00 0.00 0.00 0.00 0.00 0.00 0.00 0.00 0.00 0.00 0.00 0.00 0.00 0.00 0.00 0.00 0.00 0.00 0.00 0.00 0.00 0.00 0.00 0.00 0.00 0.00 0.00 0.00 0.00 0.00 0.00 0.00 0.00 0.00 0.00 0.00 0.00 0.00 0.00 0.00
0.00 0.00 0.00 0.00 0.00 0.00 0.00 0.00 0.00 0.00 0.00 0.00 0.00 0.00 0.00 0.00 0.00 0.00 0.00 0.00 0.00 0.00 0.00 0.00 0.00 0.00 0.00 0.00 0.00 0.00 0.00 0.00 0.00 0.00 0.00 0.00 0.00 0.00 0.00 0.00 0.00 0.00 0.00 0.00 0.00 0.00 0.00 0.00 0.00
0.00 0.00 0.00 0.00 0.00 0.00 0.00 0.00 0.00 0.00 0.00 0.00 0.00 0.00 0.00 0.00 0.00 0.00 0.00 0.00 0.00 0.00 0.00 0.00 0.00 0.00 0.00 0.00 0.00 0.00 0.00 0.00 0.00 0.00 0.00 0.00 0.00 0.00 0.00 0.00 0.00 0.00 0.00 0.00 0.00 0.00 0.00 0.00 0.00
0.00 0.00 0.00 0.00 0.00 0.00 0.00 0.00 0.00 0.00 0.00 0.00 0.00 0.00 0.00 0.00 0.00 0.00 0.00 0.00 0.00 0.00 0.00 0.00 0.00 0.00 0.00 0.00 0.00 0.00 0.00 0.00 0.00 0.00 0.00 0.00 0.00 0.00 0.00 0.00 0.00 0.00 0.00 0.00 0.00 0.00 0.00 0.00 0.00
0.00 0.00 0.00 0.00 0.00 0.00 0.00 0.00 0.00 0.00 0.00 0.00 0.00 0.00 0.00 0.00 0.00 0.00 0.00 0.00 0.00 0.00 0.00 0.00 0.00 0.00 0.00 0.00 0.00 0.00 0.00 0.00 0.00 0.00 0.00 0.00 0.00 0.00 0.00 0.00 0.00 0.00 0.00 0.00 0.00 0.00 0.00 0.00 0.00
0.00 0.00 0.00 0.00 0.00 0.00 0.00 0.00 0.00 0.00 0.00 0.00 0.00 0.00 0.00 0.00 0.00 0.00 0.00 0.00 0.00 0.00 0.00 0.00 0.00 0.00 0.00 0.00 0.00 0.00 0.00 0.00 0.00 0.00 0.00 0.00 0.00 0.00 0.00 0.00 0.01 0.00 0.00 0.00 0.00 0.00 0.00 0.00 0.00
0.00 0.00 0.00 0.00 0.00 0.00 0.00 0.00 0.00 0.00 0.00 0.00 0.00 0.00 0.00 0.00 0.00 0.00 0.00 0.00 0.00 0.00 0.00 0.00 0.00 0.00 0.00 0.00 0.00 0.00 0.00 0.00 0.00 0.00 0.00 0.00 0.00 0.00 0.00 0.01 0.02 0.01 0.00 0.00 0.00 0.00 0.00 0.03 0.02
0.00 0.00 0.00 0.00 0.00 0.00 0.00 0.00 0.00 0.00 0.00 0.00 0.00 0.00 0.00 0.00 0.00 0.00 0.00 0.00 0.00 0.00 0.00 0.00 0.00 0.00 0.00 0.00 0.00 0.00 0.00 0.00 0.00 0.00 0.00 0.00 0.00 0.00 0.00 0.00 0.01 0.01 0.01 0.00 0.00 0.00 0.00 0.01 0.05
0.00 0.00 0.00 0.00 0.00 0.00 0.00 0.00 0.00 0.00 0.00 0.00 0.00 0.00 0.00 0.00 0.00 0.00 0.00 0.00 0.00 0.00 0.00 0.00 0.00 0.00 0.00 0.00 0.00 0.00 0.00 0.00 0.00 0.00 0.00 0.00 0.00 0.00 0.00 0.00 0.02 0.01 0.01 0.01 0.00 0.01 0.01 0.05 0.04
0.00 0.00 0.00 0.00 0.00 0.00 0.00 0.00 0.00 0.00 0.00 0.00 0.00 0.00 0.00 0.00 0.00 0.00 0.00 0.00 0.00 0.00 0.00 0.00 0.00 0.00 0.00 0.00 0.00 0.00 0.00 0.00 0.00 0.00 0.00 0.00 0.00 0.00 0.00 0.00 0.06 0.04 0.03 0.03 0.02 0.01 0.01 0.07 0.05
0.00 0.00 0.00 0.00 0.00 0.00 0.00 0.00 0.00 0.00 0.00 0.00 0.00 0.00 0.00 0.00 0.00 0.00 0.00 0.00 0.00 0.00 0.00 0.00 0.00 0.00 0.00 0.00 0.00 0.00 0.00 0.00 0.00 0.00 0.00 0.00 0.00 0.00 0.00 0.00 0.09 0.09 0.09 0.03 0.01 0.00 0.00 0.01 0.03
0.00 0.00 0.00 0.00 0.00 0.00 0.00 0.00 0.00 0.00 0.00 0.00 0.00 0.00 0.00 0.00 0.00 0.00 0.00 0.00 0.00 0.00 0.00 0.00 0.00 0.00 0.00 0.00 0.00 0.00 0.00 0.00 0.00 0.00 0.00 0.00 0.00 0.00 0.00 0.00 0.08 0.08 0.01 0.00 0.00 0.00 0.00 0.01 0.06
0.00 0.00 0.00 0.00 0.00 0.00 0.00 0.00 0.00 0.00 0.00 0.00 0.00 0.00 0.00 0.00 0.00 0.00 0.00 0.00 0.00 0.00 0.00 0.00 0.00 0.00 0.00 0.00 0.00 0.00 0.00 0.00 0.00 0.00 0.00 0.00 0.00 0.00 0.00 0.00 0.01 0.01 0.00 0.00 0.00 0.00 0.00 0.00 0.00
0.00 0.00 0.00 0.00 0.00 0.00 0.00 0.00 0.00 0.00 0.00 0.00 0.00 0.00 0.00 0.00 0.00 0.00 0.00 0.00 0.00 0.00 0.00 0.00 0.00 0.00 0.00 0.00 0.00 0.00 0.00 0.00 0.00 0.00 0.00 0.00 0.00 0.00 0.00 0.00 0.00 0.00 0.00 0.00 0.00 0.00 0.00 0.00 0.00
0.00 0.00 0.00 0.00 0.00 0.00 0.00 0.00 0.00 0.00 0.00 0.00 0.00 0.00 0.00 0.00 0.00 0.00 0.00 0.00 0.00 0.00 0.00 0.00 0.00 0.00 0.00 0.00 0.00 0.00 0.00 0.00 0.00 0.00 0.00 0.00 0.00 0.00 0.00 0.00 0.00 0.00 0.00 0.00 0.00 0.00 0.00 0.00 0.00
0.00 0.00 0.00 0.00 0.00 0.00 0.00 0.00 0.00 0.00 0.00 0.00 0.00 0.00 0.00 0.00 0.00 0.00 0.00 0.00 0.00 0.00 0.00 0.00 0.00 0.00 0.00 0.00 0.00 0.00 0.00 0.00 0.00 0.00 0.00 0.00 0.00 0.00 0.00 0.00 0.00 0.00 0.00 0.00 0.00 0.00 0.00 0.00 0.00
0.00 0.00 0.00 0.00 0.00 0.00 0.00 0.00 0.00 0.00 0.00 0.00 0.00 0.00 0.00 0.00 0.00 0.00 0.00 0.00 0.00 0.00 0.00 0.00 0.00 0.00 0.00 0.00 0.00 0.00 0.00 0.00 0.00 0.00 0.00 0.00 0.00 0.00 0.00 0.00 0.00 0.00 0.00 0.00 0.00 0.00 0.00 0.00 0.00
0.00 0.00 0.00 0.00 0.00 0.00 0.00 0.00 0.00 0.00 0.00 0.00 0.00 0.00 0.00 0.00 0.00 0.00 0.00 0.00 0.00 0.00 0.00 0.00 0.00 0.00 0.00 0.00 0.00 0.00 0.00 0.00 0.00 0.00 0.00 0.00 0.00 0.00 0.00 0.00 0.00 0.00 0.00 0.00 0.00 0.00 0.00 0.00 0.00
0.00 0.00 0.00 0.00 0.00 0.00 0.00 0.00 0.00 0.00 0.00 0.00 0.00 0.00 0.00 0.00 0.00 0.00 0.00 0.00 0.00 0.00 0.00 0.00 0.00 0.00 0.00 0.00 0.00 0.00 0.00 0.00 0.00 0.00 0.00 0.00 0.00 0.00 0.00 0.00 0.00 0.00 0.00 0.00 0.00 0.00 0.00 0.00 0.00
0.00 0.00 0.00 0.00 0.00 0.00 0.00 0.00 0.00 0.00 0.00 0.00 0.00 0.00 0.00 0.00 0.00 0.00 0.00 0.00 0.00 0.00 0.00 0.00 0.00 0.00 0.00 0.00 0.00 0.00 0.00 0.00 0.00 0.00 0.00 0.00 0.00 0.00 0.00 0.00 0.00 0.00 0.00 0.00 0.00 0.00 0.00 0.00 0.00
0.00 0.00 0.00 0.00 0.00 0.00 0.00 0.00 0.00 0.00 0.00 0.00 0.00 0.00 0.00 0.00 0.00 0.00 0.00 0.00 0.00 0.00 0.00 0.00 0.00 0.00 0.00 0.00 0.00 0.00 0.00 0.00 0.00 0.00 0.00 0.00 0.00 0.00 0.00 0.00 0.00 0.00 0.00 0.00 0.00 0.00 0.00 0.00 0.00
0.00 0.00 0.00 0.00 0.00 0.00 0.00 0.00 0.00 0.00 0.00 0.00 0.00 0.00 0.00 0.00 0.00 0.00 0.00 0.00 0.00 0.00 0.00 0.00 0.00 0.00 0.00 0.00 0.00 0.00 0.00 0.00 0.00 0.00 0.00 0.00 0.00 0.00 0.00 0.00 0.00 0.00 0.00 0.00 0.00 0.00 0.00 0.00 0.01
0.00 0.00 0.00 0.00 0.00 0.00 0.00 0.00 0.00 0.00 0.00 0.00 0.00 0.00 0.00 0.00 0.00 0.00 0.00 0.00 0.00 0.00 0.00 0.00 0.00 0.00 0.00 0.00 0.00 0.00 0.00 0.00 0.00 0.00 0.00 0.00 0.00 0.00 0.00 0.00 0.00 0.00 0.00 0.00 0.00 0.00 0.00 0.00 0.00
MSLP
1012.62 1012.76 1012.70 1012.28 1011.84 1010.99 1009.41 1008.22 1007.42 1006.66 1005.99 1005.51 1005.43 1005.17 1004.56 1004.66 1004.72 1005.05 1005.15 1005.65 1005.99 1006.63 1007.54 1008.42 1009.02 1009.55 1009.70 1010.14 1010.77 1011.27 1011.93 1012.36 1012.82 1012.97 1013.05 1013.27 1013.49 1013.66 1013.99 1014.23 1014.25 1014.44 1014.52 1014.69 1014.82 1014.91 1015.12 1015.13 1015.19
1012.46 1012.67 1012.23 1011.85 1010.97 1009.68 1008.26 1007.58 1006.71 1006.20 1005.49 1005.14 1004.99 1004.81 1004.87 1004.37 1004.47 1004.51 1004.83 1005.83 1006.24 1006.68 1007.34 1007.92 1008.81 1009.31 1009.61 1009.97 1010.51 1011.00 1011.54 1012.11 1012.63 1012.80 1012.98 1013.19 1013.34 1013.55 1013.86 1014.15 1014.32 1014.41 1014.50 1014.67 1014.79 1014.96 1015.16 1015.29 1015.30
1012.43 1012.35 1011.47 1011.08 1010.20 1008.63 1007.43 1006.75 1006.25 1006.05 1005.60 1005.17 1004.55 1004.35 1004.39 1003.94 1003.99 1004.12 1004.77 1005.69 1006.25 1006.92 1007.30 1007.82 1008.61 1009.15 1009.52 1009.70 1010.13 1010.61 1011.16 1011.79 1012.26 1012.49 1012.87 1013.14 1013.18 1013.36 1013.68 1013.89 1014.05 1014.25 1014.39 1014.57 1014.68 1014.80 1015.03 1015.19 1015.29
1012.21 1012.18 1011.91 1010.69 1009.12 1008.36 1007.29 1006.49 1006.40 1006.03 1005.20 1005.08 1004.52 1004.10 1004.00 1003.75 1003.57 1003.83 1004.85 1005.59 1006.19 1006.71 1007.17 1007.90 1008.49 1008.96 1009.23 1009.37 1009.88 1010.29 1010.85 1011.42 1011.81 1011.91 1012.38 1012.66 1012.80 1013.10 1013.34 1013.58 1013.87 1014.08 1014.26 1014.42 1014.55 1014.82 1014.96 1015.03 1015.10
1012.23 1011.86 1010.82 1009.87 1008.62 1007.88 1007.28 1006.81 1006.48 1005.95 1005.53 1004.64 1004.45 1003.79 1003.68 1003.55 1003.89 1004.25 1004.79 1005.40 1005.82 1006.63 1007.14 1007.52 1008.26 1008.69 1009.16 1009.28 1009.51 1009.90 1010.59 1011.07 1011.20 1011.53 1011.87 1012.28 1012.56 1012.75 1012.96 1013.31 1013.58 1013.80 1013.97 1014.21 1014.42 1014.60 1014.78 1014.82 1014.86
1011.96 1011.84 1010.52 1008.95 1008.11 1007.60 1006.95 1006.59 1006.17 1005.31 1005.09 1004.51 1004.09 1003.74 1003.50 1003.58 1003.81 1004.40 1005.00 1005.41 1006.03 1006.65 1007.09 1007.23 1008.22 1008.68 1009.20 1009.43 1010.00 1010.22 1010.61 1010.92 1011.06 1011.29 1011.52 1011.78 1012.29 1012.70 1012.90 1013.05 1013.36 1013.77 1013.84 1014.07 1014.27 1014.47 1014.64 1014.81 1014.94
1011.09 1011.19 1009.89 1008.83 1007.91 1007.29 1006.40 1006.07 1005.51 1004.73 1004.55 1004.02 1003.67 1003.58 1003.61 1003.42 1004.07 1004.64 1005.15 1005.80 1006.26 1006.67 1007.21 1007.39 1007.83 1008.51 1009.09 1009.43 1009.80 1010.08 1010.60 1010.73 1011.01 1011.39 1011.63 1011.82 1012.00 1012.39 1012.71 1012.91 1013.06 1013.35 1013.82 1013.99 1014.06 1014.25 1014.56 1014.72 1014.80
1010.64 1010.46 1009.23 1008.40 1007.64 1006.68 1006.15 1005.59 1005.11 1004.67 1004.19 1004.03 1003.79 1003.50 1003.68 1003.95 1004.37 1004.80 1005.18 1005.77 1006.24 1006.57 1007.01 1007.35 1007.75 1008.04 1008.47 1008.85 1009.35 1009.64 1010.23 1010.50 1010.76 1010.98 1011.44 1012.00 1012.20 1012.24 1012.40 1012.74 1012.99 1013.15 1013.41 1013.86 1014.03 1014.19 1014.47 1014.63 1014.75
1010.72 1009.92 1008.34 1007.65 1007.48 1006.55 1006.17 1005.58 1005.08 1004.86 1004.64 1004.17 1003.69 1003.84 1004.23 1004.60 1004.83 1004.96 1005.15 1005.60 1005.97 1006.40 1006.83 1007.19 1007.44 1007.95 1008.28 1008.67 1008.99 1009.51 1009.81 1009.93 1010.11 1010.60 1011.06 1011.66 1011.80 1012.13 1012.31 1012.45 1012.64 1013.01 1013.28 1013.52 1013.90 1014.21 1014.35 1014.50 1014.68
1009.58 1008.52 1007.47 1006.90 1006.82 1006.39 1006.05 1005.83 1005.28 1005.03 1004.88 1004.30 1004.00 1004.07 1004.29 1004.45 1004.68 1004.83 1004.92 1004.79 1005.23 1005.49 1005.79 1006.44 1006.87 1007.27 1007.79 1008.13 1008.53 1008.94 1009.18 1009.37 1009.58 1009.78 1010.29 1010.88 1011.15 1011.57 1011.82 1012.09 1012.65 1012.96 1013.27 1013.48 1013.71 1014.02 1014.19 1014.27 1013.82
1008.50 1007.04 1006.85 1006.48 1006.42 1006.49 1006.19 1005.70 1005.49 1005.18 1004.67 1004.40 1004.09 1003.95 1004.32 1004.42 1004.36 1004.50 1004.64 1004.79 1004.72 1004.87 1005.32 1005.74 1006.44 1007.05 1007.49 1007.73 1007.82 1008.08 1008.43 1008.55 1008.87 1009.26 1009.73 1010.31 1010.86 1011.36 1011.72 1011.92 1012.38 1012.66 1013.04 1013.00 1013.27 1013.44 1013.45 1013.31 1013.43
1007.87 1006.96 1006.73 1006.55 1006.69 1006.45 1006.16 1005.71 1005.14 1005.09 1004.36 1004.49 1004.55 1004.50 1004.58 1004.48 1004.19 1004.07 1003.98 1004.07 1004.05 1004.42 1004.47 1004.97 1005.85 1006.32 1006.69 1007.07 1007.29 1007.42 1007.54 1007.71 1007.99 1008.39 1009.25 1009.73 1010.14 1010.60 1010.77 1011.24 1011.58 1011.98 1012.12 1012.32 1012.72 1012.68 1012.77 1013.04 1013.24
1007.44 1006.49 1006.72 1006.85 1006.66 1006.33 1006.37 1005.20 1005.14 1004.49 1004.30 1004.38 1004.39 1004.25 1004.06 1004.12 1004.18 1004.07 1003.91 1003.98 1003.90 1004.03 1003.76 1004.16 1005.06 1005.28 1005.54 1006.17 1006.37 1006.47 1006.37 1006.62 1006.81 1007.61 1008.17 1008.65 1009.24 1009.90 1010.52 1010.88 1011.03 1011.27 1011.49 1011.60 1011.93 1012.35 1012.82 1013.12 1013.09
1006.46 1006.75 1006.49 1006.59 1006.48 1006.49 1006.14 1004.22 1005.04 1004.13 1004.15 1003.40 1003.69 1003.46 1003.47 1003.58 1003.69 1003.53 1003.77 1003.76 1003.73 1003.65 1003.56 1003.63 1004.18 1004.37 1005.02 1005.24 1005.34 1005.22 1005.73 1005.85 1006.27 1006.54 1007.26 1008.18 1008.51 1009.12 1009.64 1010.14 1010.61 1011.02 1011.27 1011.29 1011.65 1012.29 1012.42 1012.72 1012.80
1007.32 1006.84 1006.44 1006.20 1006.31 1005.96 1006.10 1004.31 1001.77 1003.75 1004.10 1003.72 1003.38 1003.15 1002.74 1002.77 1002.91 1002.73 1002.94 1003.31 1003.45 1003.28 1003.23 1003.26 1003.54 1003.82 1004.12 1004.20 1004.35 1004.56 1004.52 1005.10 1005.38 1006.03 1006.75 1007.41 1008.00 1008.65 1009.42 1009.76 1010.05 1010.39 1010.99 1011.39 1011.78 1011.96 1012.06 1012.19 1012.58
1007.43 1007.24 1006.01 1005.01 1005.89 1005.23 1005.82 1002.76 1000.76 1002.73 1002.75 1001.96 1002.17 1001.68 1001.43 1001.57 1001.95 1002.16 1002.49 1002.63 1002.94 1003.05 1003.06 1002.83 1002.87 1002.90 1003.10 1003.25 1003.35 1003.71 1004.21 1004.40 1004.89 1005.51 1006.08 1006.76 1007.25 1007.95 1008.78 1009.09 1009.49 1010.06 1010.57 1010.97 1011.35 1011.40 1011.55 1011.68 1012.11
1007.14 1005.27 1004.61 1004.63 1004.55 1005.01 1005.04 1001.27 1001.94 1002.38 1002.24 1001.39 1001.29 1001.14 1001.15 1001.10 1001.34 1001.89 1002.03 1002.19 1002.33 1002.52 1002.33 1002.17 1002.23 1002.29 1002.35 1002.64 1002.79 1003.18 1003.70 1004.22 1004.46 1005.04 1005.68 1006.29 1006.88 1007.45 1008.02 1008.44 1009.11 1009.88 1010.34 1010.67 1011.01 1011.22 1011.19 1011.40 1011.68
1005.79 1005.33 1004.74 1004.10 1004.36 1004.61 1004.03 1001.48 1002.35 1002.34 1002.13 1001.45 1001.14 1000.88 1000.85 1000.74 1000.69 1000.99 1001.50 1001.49 1001.48 1001.57 1001.59 1001.69 1001.69 1001.92 1002.09 1002.14 1002.47 1002.66 1003.22 1003.68 1004.04 1004.58 1005.18 1005.77 1006.13 1006.76 1007.54 1008.12 1008.93 1009.73 1010.16 1010.48 1010.82 1010.80 1011.03 1011.14 1011.27
1006.94 1006.04 1005.22 1004.66 1004.51 1004.16 1003.19 1001.96 1001.94 1002.32 1001.96 1001.18 1000.84 1000.63 1000.39 1000.33 1000.66 1000.77 1000.76 1000.80 1000.89 1000.87 1000.88 1001.13 1001.21 1001.29 1001.30 1001.44 1001.87 1002.15 1002.51 1003.08 1003.66 1004.15 1004.75 1005.22 1005.68 1006.23 1007.09 1007.69 1008.58 1009.07 1009.50 1009.87 1010.20 1010.63 1010.85 1011.34 1011.95
1007.45 1006.91 1006.25 1005.71 1005.16 1004.69 1003.52 1002.51 1002.30 1002.29 1001.52 1001.06 1000.56 1000.16 1000.01 1000.04 1000.16 1000.17 1000.32 1000.10 999.99 999.92 1000.06 1000.11 1000.24 1000.22 1000.26 1000.56 1001.00 1001.43 1001.87 1002.96 1003.58 1003.85 1004.30 1004.81 1005.45 1006.01 1006.58 1007.23 1008.12 1008.68 1009.13 1009.67 1010.07 1010.42 1010.70 1011.04 1011.62
1006.96 1006.57 1006.32 1006.15 1005.44 1004.85 1004.37 1002.65 1001.90 1001.33 1001.15 1000.75 1000.20 1000.04 999.97 999.78 999.54 999.53 999.36 999.19 999.11 999.05 999.04 999.26 999.25 999.38 999.78 1000.29 1000.91 1001.37 1002.01 1002.70 1003.07 1003.44 1004.04 1004.69 1005.19 1005.76 1006.28 1006.97 1007.73 1008.33 1008.77 1009.12 1009.58 1009.97 1010.29 1010.84 1011.52
1006.48 1006.68 1006.29 1006.17 1005.97 1004.60 1004.45 1001.87 1000.88 1000.42 999.99 999.93 999.76 999.44 999.21 999.03 999.00 998.64 998.24 998.18 998.11 997.96 998.36 998.64 998.79 999.15 999.59 1000.08 1000.22 1000.63 1000.49 1001.32 1001.92 1002.83 1003.61 1004.38 1004.93 1005.47 1006.21 1006.84 1007.41 1008.02 1008.34 1008.74 1009.27 1009.92 1010.25 1010.65 1010.78
1006.38 1006.68 1006.35 1006.24 1005.92 1005.54 1004.53 1003.72 999.32 999.96 998.74 998.72 998.89 998.65 998.39 998.13 997.96 997.62 997.40 997.29 997.26 997.53 997.84 998.20 998.53 999.00 999.29 999.60 999.79 1000.23 1000.41 1001.15 1001.91 1002.69 1003.52 1004.05 1004.81 1005.41 1006.02 1006.62 1007.23 1007.71 1008.18 1008.70 1009.04 1009.64 1010.10 1010.41 1010.15
1006.16 1006.06 1006.23 1006.44 1006.18 1004.90 1004.47 1004.10 998.39 998.86 998.09 998.02 998.08 998.00 998.05 997.65 997.23 996.90 996.66 996.79 996.72 996.98 997.45 997.95 998.39 998.72 999.15 999.41 999.80 1000.06 1000.36 1001.07 1001.83 1002.59 1003.27 1004.00 1004.51 1005.42 1006.09 1006.63 1007.06 1007.58 1008.13 1008.50 1008.80 1009.23 1009.71 1010.05 1009.90
1005.96 1005.59 1005.33 1005.62 1004.82 1003.48 1003.59 1003.34 999.28 998.45 998.13 997.94 998.14 997.84 997.48 997.22 996.50 996.09 995.92 995.92 996.06 996.55 997.06 997.55 997.91 998.47 998.90 999.27 999.95 1000.15 1000.50 1001.03 1001.84 1002.47 1003.06 1003.76 1004.61 1005.27 1006.04 1006.52 1007.01 1007.44 1007.94 1008.31 1008.68 1009.11 1009.43 1009.65 1009.74
1005.29 1004.98 1003.72 1003.28 1002.94 1002.81 1003.53 1001.13 999.01 998.61 998.11 997.89 997.92 997.74 997.44 997.05 996.48 996.13 995.82 995.69 995.74 996.16 996.81 997.12 997.57 998.20 998.81 999.53 1000.04 1000.40 1000.81 1001.27 1001.96 1002.48 1003.03 1003.81 1004.37 1005.13 1005.93 1006.38 1006.88 1007.34 1007.81 1008.23 1008.66 1008.89 1009.19 1009.33 1009.63
1004.92 1004.68 1004.38 1003.90 1003.27 1002.15 1001.36 1000.09 999.30 998.65 997.84 997.48 997.39 997.55 997.26 996.81 996.24 995.63 995.46 995.56 995.80 996.28 996.78 996.99 997.49 998.09 998.90 999.58 1000.06 1000.71 1001.12 1001.59 1002.14 1002.84 1003.52 1004.08 1004.72 1005.33 1005.89 1006.38 1006.87 1007.38 1007.78 1008.21 1008.53 1008.64 1008.92 1009.12 1009.37
1004.43 1004.44 1004.63 1004.16 1002.73 1001.52 1000.26 999.53 998.10 997.57 998.00 998.17 998.09 998.00 997.62 997.00 995.96 995.58 995.64 995.97 996.39 996.60 996.72 997.18 997.66 998.24 999.09 999.73 1000.20 1000.81 1001.42 1001.84 1002.50 1003.20 1003.87 1004.37 1004.94 1005.38 1005.93 1006.42 1006.90 1007.37 1007.76 1008.02 1008.29 1008.42 1008.58 1008.72 1008.99
1005.00 1004.46 1004.40 1003.82 1002.96 1001.47 999.93 998.42 997.81 997.85 998.50 998.77 998.59 998.04 997.34 996.81 996.22 996.22 996.40 996.73 996.79 996.64 996.90 997.42 998.06 998.68 999.41 999.99 1000.52 1001.20 1001.68 1002.19 1002.86 1003.50 1004.12 1004.59 1005.10 1005.54 1005.92 1006.48 1006.95 1007.28 1007.55 1007.80 1008.00 1008.08 1008.16 1008.23 1008.78
1005.92 1005.37 1005.02 1003.76 1003.13 1002.48 1001.44 999.31 998.48 998.53 998.61 998.85 998.27 997.76 997.37 997.19 996.65 997.06 997.14 997.26 997.04 996.99 997.23 997.73 998.36 998.88 999.51 1000.14 1000.77 1001.32 1001.88 1002.46 1003.21 1003.89 1004.38 1004.77 1005.14 1005.59 1006.05 1006.49 1006.82 1007.08 1007.26 1007.51 1007.60 1007.64 1007.75 1008.04 1008.56
Thickness
5763 5763 5767 5766 5750 5747 5744 5762 5780 5781 5791 5812 5815 5811 5814 5821 5809 5796 5848 5849 5850 5845 5837 5828 5822 5817 5815 5808 5798 5790 5781 5774 5768 5765 5763 5757 5754 5752 5748 5744 5743 5740 5738 5734 5731 5730 5727 5726 5725
5760 5759 5762 5753 5741 5738 5755 5770 5773 5787 5804 5814 5816 5815 5809 5810 5832 5837 5842 5845 5845 5842 5837 5831 5823 5818 5813 5807 5798 5791 5783 5776 5769 5767 5763 5758 5754 5751 5747 5742 5739 5737 5735 5731 5728 5725 5721 5718 5717
5755 5756 5751 5745 5739 5744 5756 5773 5784 5791 5804 5805 5809 5821 5815 5819 5835 5840 5846 5844 5842 5836 5832 5828 5822 5817 5812 5808 5800 5793 5786 5777 5770 5766 5761 5756 5755 5751 5746 5742 5739 5735 5733 5730 5726 5723 5719 5715 5712
5747 5744 5742 5735 5743 5754 5766 5778 5783 5785 5803 5806 5810 5805 5824 5840 5841 5847 5843 5842 5837 5833 5829 5823 5820 5815 5811 5807 5799 5793 5786 5777 5771 5768 5761 5757 5755 5750 5746 5743 5739 5734 5731 5728 5724 5719 5715 5712 5710
5739 5735 5729 5732 5747 5758 5767 5774 5778 5778 5788 5800 5806 5805 5813 5836 5843 5843 5841 5840 5837 5833 5829 5825 5819 5813 5807 5804 5800 5793 5782 5778 5775 5767 5762 5756 5753 5749 5746 5741 5737 5733 5729 5726 5722 5717 5713 5710 5707
5721 5724 5718 5732 5748 5758 5768 5777 5778 5786 5790 5798 5801 5804 5815 5837 5838 5838 5837 5835 5834 5829 5826 5825 5814 5810 5804 5800 5793 5788 5780 5775 5772 5766 5761 5757 5752 5746 5741 5737 5733 5727 5724 5721 5718 5714 5710 5706 5702
5720 5712 5718 5730 5739 5748 5763 5780 5778 5787 5789 5793 5810 5797 5815 5829 5834 5833 5831 5829 5828 5826 5821 5818 5813 5807 5800 5796 5790 5784 5777 5774 5769 5762 5757 5752 5749 5743 5739 5734 5731 5726 5720 5716 5714 5710 5705 5702 5699
5723 5717 5720 5732 5736 5746 5765 5773 5785 5786 5786 5807 5810 5792 5797 5820 5829 5828 5827 5825 5823 5822 5818 5815 5809 5805 5800 5796 5790 5784 5776 5772 5768 5763 5755 5747 5742 5739 5736 5731 5727 5723 5718 5711 5708 5705 5701 5697 5694
5717 5703 5714 5731 5732 5750 5764 5762 5778 5788 5783 5793 5804 5803 5810 5813 5817 5817 5818 5818 5816 5815 5813 5812 5807 5801 5797 5792 5787 5779 5774 5772 5767 5762 5755 5746 5741 5736 5733 5729 5725 5718 5713 5709 5703 5699 5696 5693 5689
5707 5705 5721 5748 5747 5747 5758 5758 5765 5765 5769 5778 5788 5802 5808 5809 5809 5808 5809 5812 5810 5813 5813 5810 5806 5802 5796 5790 5786 5778 5774 5769 5765 5762 5756 5748 5743 5736 5732 5727 5719 5712 5706 5703 5699 5695 5692 5690 5690
5706 5709 5735 5743 5745 5746 5748 5754 5763 5755 5755 5773 5778 5789 5794 5797 5802 5804 5806 5806 5808 5812 5811 5808 5801 5795 5790 5786 5783 5779 5774 5771 5766 5760 5754 5747 5739 5733 5728 5722 5714 5708 5702 5700 5697 5693 5691 5692 5689
5693 5715 5726 5735 5733 5735 5736 5752 5750 5754 5764 5774 5778 5784 5784 5787 5795 5801 5806 5805 5808 5807 5809 5806 5798 5792 5789 5784 5781 5779 5776 5773 5769 5763 5753 5745 5740 5735 5730 5721 5714 5708 5704 5699 5694 5692 5690 5687 5684
5689 5711 5713 5720 5721 5728 5731 5738 5743 5751 5769 5772 5774 5778 5782 5785 5788 5795 5801 5803 5804 5802 5808 5806 5798 5795 5791 5785 5783 5780 5779 5776 5773 5764 5756 5749 5742 5734 5725 5717 5713 5708 5702 5699 5694 5689 5685 5680 5678
5704 5696 5702 5707 5709 5713 5712 5739 5734 5752 5763 5771 5767 5775 5781 5785 5787 5792 5792 5794 5795 5798 5801 5803 5799 5796 5789 5787 5785 5785 5779 5777 5771 5766 5757 5746 5741 5734 5726 5718 5712 5705 5699 5696 5690 5685 5682 5676 5673
5676 5670 5682 5691 5699 5704 5706 5713 5742 5753 5751 5751 5760 5770 5782 5785 5789 5792 5796 5793 5794 5796 5798 5798 5794 5792 5789 5787 5788 5785 5784 5777 5772 5764 5755 5746 5738 5731 5721 5715 5710 5705 5697 5692 5686 5681 5678 5676 5668
5653 5652 5654 5694 5686 5703 5690 5702 5759 5753 5751 5759 5763 5776 5783 5789 5788 5792 5793 5793 5794 5792 5790 5793 5794 5792 5791 5788 5787 5786 5781 5776 5769 5762 5754 5745 5738 5730 5721 5715 5709 5700 5694 5690 5684 5681 5676 5671 5663
5637 5651 5661 5674 5692 5689 5679 5713 5736 5741 5740 5753 5761 5769 5774 5780 5784 5786 5789 5790 5790 5788 5788 5791 5791 5790 5790 5786 5784 5782 5777 5770 5766 5759 5750 5741 5733 5727 5720 5714 5706 5696 5690 5686 5680 5674 5672 5664 5659
5637 5639 5652 5655 5671 5669 5674 5701 5714 5724 5730 5740 5749 5757 5764 5770 5779 5787 5786 5787 5788 5787 5788 5787 5787 5785 5784 5784 5782 5779 5772 5767 5762 5755 5747 5737 5732 5725 5717 5711 5701 5691 5685 5679 5673 5670 5665 5661 5655
5614 5620 5627 5643 5657 5658 5672 5690 5700 5707 5715 5727 5739 5747 5757 5763 5771 5776 5782 5782 5782 5783 5785 5783 5782 5781 5782 5781 5777 5772 5768 5763 5757 5751 5743 5736 5729 5723 5714 5707 5699 5691 5683 5677 5672 5665 5659 5651 5642
5589 5591 5599 5619 5635 5641 5655 5666 5680 5687 5704 5719 5730 5740 5749 5755 5759 5767 5770 5775 5777 5780 5782 5783 5781 5783 5784 5783 5778 5773 5769 5757 5750 5746 5739 5732 5725 5719 5713 5706 5695 5687 5681 5673 5666 5660 5653 5648 5640
5575 5579 5590 5598 5617 5630 5632 5643 5667 5690 5699 5713 5726 5734 5740 5746 5752 5759 5765 5769 5773 5777 5781 5780 5782 5782 5781 5778 5772 5767 5761 5753 5746 5739 5732 5726 5722 5716 5710 5702 5693 5685 5678 5670 5664 5658 5652 5643 5635
5551 5570 5582 5590 5594 5605 5628 5623 5662 5689 5695 5706 5718 5728 5737 5743 5748 5755 5761 5765 5770 5775 5776 5776 5778 5778 5775 5772 5770 5765 5765 5754 5748 5737 5731 5723 5719 5713 5704 5698 5691 5682 5675 5668 5661 5654 5648 5641 5635
5538 5554 5567 5576 5580 5588 5606 5598 5676 5685 5693 5706 5715 5725 5733 5739 5746 5753 5759 5764 5769 5770 5771 5774 5775 5770 5771 5769 5768 5763 5758 5750 5742 5733 5725 5721 5714 5707 5701 5694 5686 5678 5671 5664 5658 5650 5644 5639 5638
5542 5543 5553 5560 5568 5567 5593 5592 5671 5678 5697 5706 5713 5720 5722 5733 5743 5752 5758 5762 5765 5768 5770 5769 5767 5767 5766 5765 5761 5757 5751 5743 5735 5729 5722 5715 5709 5701 5695 5688 5681 5673 5666 5660 5655 5650 5643 5637 5635
5525 5529 5537 5537 5548 5571 5596 5589 5660 5679 5688 5695 5698 5707 5720 5729 5741 5749 5755 5761 5764 5766 5766 5765 5766 5762 5761 5758 5753 5749 5744 5739 5730 5725 5718 5710 5701 5695 5687 5682 5674 5669 5662 5657 5653 5646 5641 5637 5633
5524 5531 5549 5547 5561 5583 5583 5600 5650 5674 5686 5692 5695 5704 5714 5723 5732 5742 5752 5758 5763 5764 5761 5763 5761 5757 5755 5749 5743 5740 5737 5733 5726 5720 5714 5706 5699 5691 5683 5676 5670 5663 5658 5654 5649 5645 5641 5637 5631
5521 5518 5546 5545 5555 5580 5589 5627 5649 5663 5677 5691 5695 5698 5705 5715 5728 5742 5751 5756 5758 5757 5754 5759 5756 5752 5746 5740 5736 5731 5729 5725 5718 5711 5704 5698 5692 5684 5677 5671 5664 5659 5655 5650 5646 5644 5640 5635 5630
5523 5538 5525 5533 5546 5563 5596 5610 5636 5653 5659 5670 5676 5685 5696 5709 5727 5739 5746 5746 5746 5748 5753 5752 5749 5743 5737 5733 5731 5726 5721 5717 5710 5703 5696 5690 5684 5678 5671 5665 5660 5656 5651 5649 5645 5643 5639 5635 5631
5516 5521 5525 5540 5555 5566 5588 5617 5641 5646 5646 5652 5665 5680 5695 5705 5721 5728 5732 5733 5740 5747 5747 5743 5739 5735 5730 5727 5723 5718 5713 5708 5702 5696 5689 5683 5677 5671 5666 5661 5656 5652 5649 5647 5645 5643 5640 5636 5629
5509 5512 5518 5530 5544 5556 5568 5596 5628 5633 5643 5650 5663 5676 5690 5700 5714 5715 5720 5726 5733 5737 5738 5735 5731 5728 5725 5721 5717 5712 5707 5701 5694 5687 5682 5677 5672 5667 5662 5657 5653 5650 5648 5647 5645 5643 5640 5634 5626